TimeEDT,TemperatureF,Dew PointF,Humidity,Sea Level PressureIn,VisibilityMPH,Wind Direction,Wind SpeedMPH,Gust SpeedMPH,PrecipitationIn,Events,Conditions,WindDirDegrees,DateUTC
12:53 AM,39.9,28.9,65,29.92,9.0,Calm,Calm,-,N/A,,Clear,0,2013-03-31 04:53:00
1:53 AM,39.0,30.0,70,29.89,8.0,Calm,Calm,-,N/A,,Clear,0,2013-03-31 05:53:00
2:53 AM,35.1,28.0,76,29.86,7.0,Calm,Calm,-,N/A,,Scattered Clouds,0,2013-03-31 06:53:00
3:53 AM,36.0,28.0,73,29.83,7.0,Calm,Calm,-,N/A,,Overcast,0,2013-03-31 07:53:00
4:53 AM,37.0,28.9,73,29.80,7.0,Calm,Calm,-,N/A,,Mostly Cloudy,0,2013-03-31 08:53:00
5:53 AM,37.9,30.0,73,29.77,6.0,Calm,Calm,-,N/A,,Haze,0,2013-03-31 09:53:00
6:53 AM,39.9,33.1,77,29.75,6.0,South,3.5,-,N/A,,Haze,190,2013-03-31 10:53:00
7:53 AM,43.0,32.0,65,29.75,6.0,SSW,8.1,-,N/A,,Haze,200,2013-03-31 11:53:00
8:53 AM,44.1,34.0,68,29.74,7.0,SW,8.1,-,0.00,Rain,Light Rain,220,2013-03-31 12:53:00
9:53 AM,44.1,36.0,73,29.73,4.0,SW,8.1,-,0.01,Rain,Light Rain,220,2013-03-31 13:53:00
10:21 AM,44.6,37.4,76,29.71,2.5,SSW,9.2,-,0.02,Rain,Light Rain,210,2013-03-31 14:21:00
10:29 AM,44.6,37.4,76,29.71,3.0,SW,9.2,-,0.02,Rain,Light Rain,220,2013-03-31 14:29:00
10:53 AM,45.0,39.0,80,29.72,4.0,SW,9.2,-,0.02,,Haze,220,2013-03-31 14:53:00
11:03 AM,44.6,39.2,81,29.71,3.0,SW,8.1,-,N/A,,Haze,220,2013-03-31 15:03:00
11:17 AM,46.4,39.2,76,29.71,3.0,SW,9.2,-,N/A,,Haze,220,2013-03-31 15:17:00
11:53 AM,46.9,41.0,80,29.71,3.0,SW,9.2,-,N/A,,Haze,230,2013-03-31 15:53:00
12:03 PM,48.2,42.8,82,29.71,3.0,SW,9.2,-,N/A,,Haze,230,2013-03-31 16:03:00
12:30 PM,50.0,42.8,76,29.70,4.0,SW,10.4,-,N/A,,Haze,230,2013-03-31 16:30:00
12:53 PM,51.1,43.0,74,29.70,4.0,SW,12.7,-,N/A,,Haze,230,2013-03-31 16:53:00
1:53 PM,57.0,39.0,51,29.67,10.0,WSW,17.3,23.0,N/A,,Mostly Cloudy,240,2013-03-31 17:53:00
2:53 PM,61.0,36.0,39,29.65,10.0,West,18.4,25.3,N/A,,Scattered Clouds,270,2013-03-31 18:53:00
3:53 PM,62.1,30.9,31,29.64,10.0,West,16.1,20.7,N/A,,Partly Cloudy,270,2013-03-31 19:53:00
4:53 PM,62.1,28.9,29,29.62,10.0,WSW,17.3,-,N/A,,Partly Cloudy,250,2013-03-31 20:53:00
5:53 PM,61.0,28.9,30,29.62,10.0,West,16.1,26.5,N/A,,Scattered Clouds,260,2013-03-31 21:53:00
6:53 PM,59.0,27.0,29,29.62,10.0,West,17.3,25.3,N/A,,Overcast,260,2013-03-31 22:53:00
8:53 PM,54.0,28.9,38,29.65,10.0,West,13.8,-,N/A,,Mostly Cloudy,270,2013-04-01 00:53:00
10:53 PM,50.0,36.0,59,29.67,10.0,NW,21.9,26.5,0.00,,Overcast,320,2013-04-01 02:53:00